Location: McLaughlin
(0.0000°N, 0.0000°E)
Time: 21:32:59
(UTC+00:00)

XW-2D - Visible Passes

Search period start: 19 August 2019 00:00
Search period end: 29 August 2019 00:00
Orbit: 509 x 527 km, 97.5° (Epoch: 18 August)

Date Brightness Start Highest point End Pass type
(mag) Time Alt. Az. Time Alt. Az. Time Alt. Az.
21 Aug ? 05:27:00 10° NNE 05:30:47 66° ESE 05:34:34 10° S visible
22 Aug ? 05:13:13 10° NNE 05:16:46 37° ESE 05:20:19 10° S visible
23 Aug ? 04:59:43 10° NE 05:02:44 23° E 05:05:46 10° SSE visible
23 Aug ? 18:27:51 10° SW 18:29:35 13° WSW 18:31:21 10° WNW visible
24 Aug ? 04:46:42 10° ENE 04:48:44 14° ESE 04:50:44 10° SE visible
27 Aug ? 05:36:41 10° N 05:40:29 84° WNW 05:44:17 10° SSW visible
28 Aug ? 05:22:44 10° NNE 05:26:27 55° E 05:30:11 10° S visible
